Location: Unspecified
(0.0000°N, 0.0000°E)
Time: 00:26:42
(UTC+00:00)

USA 125 - Pass Details

Date: 24 May 2026
Orbit: 363 x 39930 km, 64.0° (Epoch: 9 October)

Event Time Altitude Azimuth Distance (km) Brightness Sun altitude
Rises 18:25:25 0° 344° (NNW) 12,890 ? -6.7°
Reaches altitude 10° 18:41:25 10° 357° (N) 6,994 ? -10.4°
Maximum altitude 18:51:33 19° 37° (NE) 2,993 ? -12.7°
Enters shadow 18:55:00 12° 78° (ENE) 2,431 ? -13.6°
